COSMOS 2251 DEB, 34796

Orbit data source: Space-Track

COSMOS 2251 DEB, 34796 is space debris in LEO originally from a launch on Wed, 16 Jun 1993 UTC launched from the Plesetsk Missile And Space Complex (PKMTR). The debris from Iridium 33, an American commercial communications satellite, has been tracked extensively since its accidental collision with the defunct Russian satellite Cosmos 2251 in 2009. This event, occurring at high speed in low Earth orbit (LEO), generated thousands of pieces of space debris, significantly increasing the risk of further collisions. The Iridium 33 debris cloud has impacted space traffic management and orbital debris mitigation strategies, making it a subject of ongoing study in space situational awareness.

Loading next visibility...
Identifier
34796, 1993-036AAZ
Orbit
LEO
Country
Flag of CISCIS
Related business
Manufacturer
Unknown
Mission
Spacecraft
Bus & Motor
Unknown
Mass
Unknown
Launch date (UTC)
1993-06-16 (33 years ago)
Launch vehicle
Unknown
Launch site
Plesetsk Missile And Space Complex (PKMTR)
Object type
Payload
Rocket body
Debris
Shape & HBR
Unknown shape, 0.1 m
Radar Cross Section
Small (<0.1 m²)

Expand to show TLE details & history
Last TLE update: 1 day ago

TLE from 1 day ago
0 COSMOS 2251 DEB
1 34796U 93036AAZ 26106.40991453  .00001256  00000-0  31587-3 0  9991
2 34796  74.0310 342.4570 0097928  54.6567 124.2694 14.49427275898333
Epoch: 2026-04-16T09:50Z
TLE epoch observation values (Epoch: 2026-04-16T09:50:16.615Z)
Latitude
0.03598°
Longitude
170.31967°
Altitude
769.793 km
Speed
7.449 km/s
True Right ascension
10h 49m 47s
True Declination
0° 02' 09"
Sunlit
Object was in full shadow at epoch
Visualization orbit readout
Latitude
Unknown
Longitude
Unknown
Altitude
Unknown
Speed
Unknown
Apparent Right ascension
Unknown
Apparent Declination
Unknown
Sunlit
N/A
Visualization observer readout
Local Sidereal Time
17:05:00
Azimuth
Unknown
Elevation
Unknown
Doppler factor
Unknown
Orbital elements
Apogee altitude
794.69 km
Perigee altitude
655.568 km
Semi-major axis
7,103.266 km
Eccentricity
0.00979
Inclination
74.031°
RAAN
342.457°
Arg. of periapsis
54.6567°
True anomaly
125.19037°
Mean anomaly
124.2694°
Eccentric anomaly
124.73052°
Mean motion
3.6254 °/min
Orbital period
99.3 mins
BSTAR
0.00031587

Documentation

Showing up to 5 results
|